Weather History for KWST - November, 2012

Change the Weather History Date:

Friday, November 2, 2012

  Actual Average (KGON) Record (KGON)
Temperature  
Mean Temperature 48 °F -  
Max Temperature 55 °F 60 °F 71 °F (1982)
Min Temperature 43 °F 41 °F 25 °F (1976)
Degree Days  
Heating Degree Days 17    
Moisture  
Dew Point 37 °F    
Average Humidity 65    
Maximum Humidity 80    
Minimum Humidity 52    
Precipitation  
Precipitation 0.00 in - - ()
Sea Level Pressure  
Sea Level Pressure 29.60 in    
Wind  
Wind Speed 2 mph (NW)    
Max Wind Speed 12 mph    
Max Gust Speed 25 mph    
Visibility 10 miles    
Events Rain    
Averages and records for this station are not official NWS values.
T = Trace of Precipitation, MM = Missing Value Source: NWS Daily Summary

Daily Weather History Graph

Daily Weather History Graph

Search for Another Location

Airport or City:

Trip Planner

Search our weather history database for the weather conditions in past years. The results will help you decide how hot, cold, wet, or windy it might be!

Date:

Astronomy

Nov. 02, 2012 Rise Set
Actual Time 7:20 AM EDT 5:40 PM EDT
Civil Twilight 6:51 AM EDT 6:09 PM EDT
Nautical Twilight 6:18 AM EDT 6:42 PM EDT
Astronomical Twilight 5:46 AM EDT 7:14 PM EDT
Moon 8:23 PM EDT (11/2) 10:39 AM EDT (11/2)
Length of Visible Light 11h 17m
Length of Day
10h 20m
Waning Gibbous, 87% of the Moon is Illuminated
Nov 2
Waning Gibbous
Nov 6
Last Quarter
Nov 13
New
Nov 20
First Quarter
Nov 28
Full

Hourly Weather History & Observations

Time (EDT) Temp. Windchill Dew Point Humidity Pressure Visibility Wind Dir Wind Speed Gust Speed Precip Events Conditions
12:53 AM 48.0 °F - 39.9 °F 74% 29.59 in 10.0 mi Calm Calm - N/A   Mostly Cloudy
1:53 AM 48.0 °F - 39.9 °F 74% 29.59 in 10.0 mi Calm Calm - N/A   Mostly Cloudy
2:53 AM 46.9 °F - 39.9 °F 77% 29.59 in 10.0 mi Calm Calm - N/A   Overcast
3:53 AM 46.9 °F - 39.9 °F 77% 29.58 in 10.0 mi West 3.5 mph - N/A   Overcast
4:53 AM 48.0 °F - 39.9 °F 74% 29.58 in 10.0 mi Calm Calm - N/A   Overcast
5:53 AM 46.9 °F - 39.9 °F 77% 29.58 in 10.0 mi Calm Calm - N/A   Overcast
6:53 AM 46.9 °F - 39.9 °F 77% 29.59 in 10.0 mi Calm Calm - N/A   Mostly Cloudy
7:53 AM 46.0 °F - 39.9 °F 79% 29.59 in 10.0 mi Calm Calm - N/A   Overcast
8:53 AM 46.9 °F - 41.0 °F 80% 29.60 in 10.0 mi Calm Calm - N/A   Overcast
9:53 AM 48.9 °F - 39.9 °F 71% 29.60 in 10.0 mi WNW 5.8 mph - N/A   Overcast
10:53 AM 48.9 °F - 37.9 °F 66% 29.61 in 10.0 mi Variable 6.9 mph - 0.00 in Rain Light Rain
11:53 AM 50.0 °F - 37.9 °F 63% 29.60 in 10.0 mi West 5.8 mph - 0.00 in   Overcast
12:53 PM 52.0 °F - 37.9 °F 59% 29.58 in 10.0 mi WNW 5.8 mph - 0.00 in Rain Light Rain
1:53 PM 52.0 °F - 37.0 °F 57% 29.57 in 10.0 mi NNW 5.8 mph - 0.00 in   Overcast
2:53 PM 52.0 °F - 36.0 °F 54% 29.56 in 10.0 mi NW 5.8 mph - N/A   Overcast
3:53 PM 51.1 °F - 36.0 °F 56% 29.57 in 10.0 mi Variable 5.8 mph - N/A   Overcast
4:53 PM 51.1 °F - 35.1 °F 54% 29.58 in 10.0 mi Calm Calm - N/A   Overcast
5:53 PM 50.0 °F - 37.0 °F 61% 29.59 in 10.0 mi Calm Calm - N/A   Overcast
6:53 PM 50.0 °F - 33.1 °F 52% 29.61 in 10.0 mi WNW 5.8 mph - N/A   Overcast
7:53 PM 48.9 °F - 34.0 °F 56% 29.63 in 10.0 mi NW 5.8 mph - N/A   Overcast
8:53 PM 48.0 °F - 33.1 °F 56% 29.64 in 10.0 mi NW 6.9 mph - N/A   Overcast
9:53 PM 46.9 °F - 30.0 °F 52% 29.65 in 10.0 mi NW 11.5 mph 25.3 mph N/A   Overcast
10:53 PM 44.1 °F 39.0 °F 30.0 °F 58% 29.65 in 10.0 mi NW 9.2 mph 21.9 mph N/A   Clear
11:53 PM 43.0 °F 39.5 °F 30.9 °F 62% 29.65 in 10.0 mi NW 5.8 mph - N/A   Clear